Temp
-11 -11 -11 -11 -11 -11 -11 -10 -11 -10 -10 -10 -10 -10 -10 -10 -10 -10 -10 -10 -10 -10 -10 -9 -9 -9 -8 -8 -8 -8 -8 -8 -7 -7 -7 -7 -6 -6 -6 -6 -6 -6 -6 -6 -6 -6 -6 -6 -6 -5 -5 -4 -4 -3 -3 -3 -2 -2 -2 -2 -2 -1 -1 -1 -0 -0 -1 -1 -1
-11 -11 -11 -11 -11 -10 -10 -10 -10 -10 -10 -10 -10 -11 -11 -11 -10 -10 -10 -10 -10 -10 -10 -9 -9 -9 -9 -8 -8 -8 -8 -8 -7 -7 -7 -6 -6 -6 -6 -6 -6 -6 -6 -6 -6 -6 -6 -6 -6 -5 -5 -4 -4 -4 -3 -3 -2 -2 -2 -2 -2 -2 -1 -1 -0 -0 -1 -1 -0
-11 -11 -11 -10 -10 -10 -10 -10 -10 -10 -10 -10 -10 -11 -11 -11 -11 -11 -11 -10 -10 -10 -9 -9 -9 -9 -9 -9 -8 -8 -8 -8 -8 -7 -7 -6 -6 -6 -6 -6 -6 -6 -6 -6 -6 -6 -6 -6 -6 -5 -5 -4 -4 -3 -3 -3 -2 -2 -2 -2 -2 -2 -2 -1 -1 -1 -0 -0 -0
-11 -11 -11 -10 -10 -10 -11 -10 -10 -10 -10 -10 -11 -11 -11 -11 -11 -11 -11 -10 -10 -10 -9 -9 -9 -9 -9 -9 -8 -8 -8 -8 -8 -7 -7 -6 -6 -6 -6 -6 -6 -6 -6 -6 -6 -7 -6 -6 -6 -5 -5 -4 -4 -3 -3 -3 -3 -3 -3 -2 -2 -2 -2 -2 -1 -1 -1 -0 -0
-11 -11 -11 -11 -10 -10 -10 -10 -10 -10 -10 -10 -11 -11 -11 -11 -11 -11 -11 -10 -10 -10 -9 -9 -9 -9 -9 -8 -8 -8 -8 -8 -8 -7 -7 -6 -6 -6 -6 -6 -6 -6 -6 -6 -6 -6 -6 -6 -6 -5 -5 -4 -4 -4 -3 -3 -3 -3 -3 -2 -2 -2 -2 -2 -1 -1 -1 -0 -0
-11 -11 -11 -10 -10 -10 -10 -10 -10 -10 -10 -11 -11 -11 -11 -11 -11 -11 -11 -10 -10 -10 -9 -9 -9 -9 -8 -8 -8 -8 -8 -8 -8 -7 -7 -6 -6 -6 -6 -6 -6 -6 -6 -6 -6 -6 -6 -6 -6 -5 -5 -4 -4 -3 -3 -3 -3 -2 -2 -2 -2 -2 -2 -2 -2 -1 -1 -1 -0
-11 -11 -11 -10 -10 -10 -10 -10 -10 -10 -10 -11 -11 -11 -11 -11 -11 -11 -10 -10 -10 -10 -10 -9 -9 -8 -8 -8 -8 -8 -8 -8 -8 -7 -7 -6 -6 -6 -6 -6 -6 -6 -6 -6 -6 -6 -6 -6 -6 -5 -5 -4 -4 -3 -3 -3 -2 -2 -2 -2 -2 -2 -2 -2 -1 -1 -1 -0 -0
-11 -11 -11 -10 -10 -10 -10 -10 -10 -10 -11 -11 -11 -11 -11 -11 -10 -10 -10 -10 -10 -10 -10 -9 -9 -8 -8 -8 -8 -8 -8 -8 -8 -7 -7 -6 -6 -6 -6 -6 -6 -6 -6 -6 -6 -6 -6 -6 -6 -5 -5 -5 -4 -4 -3 -3 -3 -2 -2 -2 -2 -2 -2 -1 -1 -1 -1 -0 -0
-11 -11 -10 -10 -10 -10 -10 -10 -10 -10 -11 -11 -11 -11 -11 -11 -10 -10 -10 -10 -10 -10 -10 -9 -9 -8 -8 -8 -8 -8 -8 -8 -8 -8 -7 -7 -6 -6 -6 -6 -6 -6 -6 -6 -6 -6 -6 -6 -6 -5 -5 -5 -4 -4 -3 -3 -2 -2 -2 -2 -2 -2 -1 -1 -1 -0 -0 -0 0
-11 -11 -11 -11 -11 -10 -10 -10 -10 -11 -11 -11 -11 -11 -11 -11 -10 -10 -10 -11 -10 -10 -10 -9 -9 -8 -8 -8 -8 -8 -8 -8 -8 -8 -7 -7 -7 -6 -6 -6 -6 -6 -6 -6 -6 -6 -6 -6 -6 -6 -5 -5 -4 -4 -3 -3 -2 -2 -2 -2 -1 -1 -1 -1 -0 -0 0 0 0
-11 -11 -11 -11 -11 -11 -10 -10 -10 -11 -11 -11 -12 -11 -11 -11 -11 -11 -10 -10 -10 -10 -10 -9 -9 -9 -9 -9 -9 -9 -9 -8 -8 -8 -7 -7 -7 -6 -6 -6 -6 -6 -6 -6 -6 -6 -6 -6 -6 -6 -5 -5 -5 -4 -3 -3 -2 -2 -2 -1 -1 -1 -1 -1 -0 -0 0 0 1
-11 -11 -11 -11 -11 -11 -11 -11 -11 -11 -11 -12 -12 -12 -12 -11 -11 -11 -11 -10 -10 -10 -10 -9 -9 -9 -9 -9 -9 -9 -9 -8 -8 -8 -7 -7 -7 -7 -6 -6 -6 -6 -6 -6 -6 -6 -6 -6 -6 -6 -5 -5 -5 -4 -4 -3 -3 -2 -2 -1 -1 -1 -1 -1 -0 -0 -0 0 1
-11 -11 -11 -11 -11 -11 -11 -11 -11 -11 -12 -12 -12 -12 -12 -12 -12 -11 -11 -11 -10 -10 -10 -9 -9 -9 -9 -9 -9 -9 -9 -8 -8 -8 -7 -7 -7 -7 -6 -6 -6 -6 -6 -6 -6 -6 -6 -6 -6 -6 -5 -5 -5 -5 -4 -4 -3 -2 -2 -1 -1 -1 -1 -1 -1 -0 -0 -0 0
-12 -12 -12 -11 -11 -11 -11 -11 -12 -12 -12 -13 -13 -13 -13 -12 -12 -12 -11 -11 -11 -10 -10 -9 -9 -9 -9 -9 -9 -9 -9 -9 -8 -8 -7 -7 -7 -7 -7 -6 -6 -6 -6 -6 -6 -6 -6 -6 -6 -6 -5 -5 -5 -5 -5 -4 -4 -3 -3 -2 -2 -2 -1 -1 -1 -1 -1 -1 -1
-12 -12 -12 -12 -12 -12 -12 -12 -12 -13 -13 -13 -13 -13 -13 -13 -12 -12 -12 -11 -11 -10 -10 -10 -9 -9 -9 -9 -9 -9 -9 -9 -8 -8 -7 -7 -7 -7 -7 -6 -6 -6 -6 -6 -6 -7 -7 -6 -6 -6 -5 -5 -5 -5 -5 -5 -4 -4 -4 -3 -3 -3 -2 -2 -2 -2 -2 -1 -1
-12 -12 -12 -12 -12 -12 -12 -13 -13 -13 -13 -13 -13 -13 -13 -13 -13 -12 -12 -12 -11 -11 -10 -10 -10 -10 -9 -9 -9 -9 -9 -9 -8 -8 -7 -7 -7 -7 -7 -6 -6 -6 -6 -6 -7 -7 -7 -7 -6 -6 -6 -5 -5 -5 -5 -5 -5 -4 -4 -4 -4 -3 -3 -3 -2 -2 -2 -2 -1
-12 -12 -12 -12 -13 -13 -13 -13 -13 -14 -14 -14 -13 -13 -13 -13 -13 -13 -12 -12 -12 -11 -10 -10 -10 -10 -10 -10 -9 -9 -9 -9 -8 -8 -8 -7 -7 -7 -7 -7 -6 -6 -6 -6 -7 -7 -7 -7 -6 -6 -6 -5 -5 -5 -5 -5 -5 -5 -4 -4 -4 -3 -3 -3 -3 -2 -2 -2 -2
-12 -12 -12 -13 -13 -13 -13 -13 -13 -14 -14 -14 -14 -14 -14 -14 -13 -13 -13 -12 -12 -11 -11 -10 -10 -10 -10 -10 -10 -10 -9 -9 -9 -8 -8 -7 -7 -7 -7 -7 -6 -6 -6 -6 -7 -7 -7 -7 -6 -6 -6 -5 -5 -5 -5 -5 -5 -5 -4 -4 -4 -4 -3 -3 -3 -3 -2 -2 -2
-12 -12 -13 -13 -13 -13 -13 -13 -14 -14 -14 -14 -14 -14 -14 -14 -14 -13 -13 -12 -12 -12 -11 -11 -10 -10 -10 -10 -10 -10 -10 -9 -9 -8 -8 -7 -7 -7 -7 -7 -6 -6 -6 -6 -6 -7 -7 -7 -6 -6 -6 -5 -5 -5 -5 -5 -5 -5 -5 -4 -4 -4 -4 -3 -3 -3 -3 -2 -2
-13 -13 -13 -13 -13 -13 -14 -14 -14 -14 -14 -14 -14 -14 -14 -14 -14 -13 -13 -13 -12 -12 -12 -11 -11 -10 -10 -10 -10 -10 -10 -9 -9 -8 -8 -7 -7 -7 -7 -7 -7 -6 -6 -6 -6 -6 -7 -7 -7 -6 -6 -6 -5 -5 -5 -5 -5 -5 -5 -5 -4 -4 -4 -4 -3 -3 -3 -2 -2
-13 -13 -13 -13 -13 -14 -14 -14 -14 -14 -14 -14 -14 -14 -14 -14 -14 -14 -13 -13 -12 -12 -12 -11 -11 -11 -10 -10 -10 -10 -10 -9 -9 -9 -8 -8 -7 -7 -7 -7 -7 -7 -6 -6 -6 -6 -6 -7 -7 -6 -6 -6 -6 -5 -5 -5 -5 -5 -5 -4 -4 -4 -4 -4 -4 -3 -3 -3 -2
-13 -13 -13 -13 -14 -14 -14 -14 -14 -14 -14 -14 -14 -14 -14 -14 -14 -14 -13 -13 -13 -12 -12 -12 -11 -11 -11 -11 -10 -10 -10 -9 -9 -9 -8 -8 -8 -7 -7 -7 -7 -7 -7 -7 -6 -6 -6 -7 -7 -7 -6 -6 -6 -6 -5 -5 -5 -5 -5 -4 -4 -4 -4 -4 -4 -4 -3 -3 -3
-13 -13 -13 -13 -14 -14 -14 -15 -15 -14 -14 -14 -14 -14 -14 -14 -14 -13 -13 -13 -13 -13 -12 -12 -11 -11 -11 -11 -11 -10 -10 -10 -9 -9 -8 -8 -8 -8 -8 -7 -7 -7 -7 -7 -7 -6 -6 -7 -7 -7 -7 -6 -6 -6 -6 -6 -5 -5 -5 -5 -4 -4 -4 -4 -4 -4 -4 -3 -3
-13 -13 -13 -13 -14 -14 -14 -15 -15 -14 -14 -14 -14 -14 -14 -14 -14 -13 -13 -13 -13 -13 -12 -12 -12 -12 -11 -11 -11 -11 -10 -10 -9 -9 -9 -8 -8 -8 -8 -7 -7 -7 -7 -7 -7 -7 -6 -7 -7 -7 -7 -7 -7 -6 -6 -6 -6 -6 -6 -5 -5 -4 -4 -4 -4 -4 -4 -4 -4
-13 -13 -13 -13 -14 -14 -14 -15 -14 -14 -14 -14 -14 -14 -14 -14 -14 -13 -13 -13 -13 -13 -12 -12 -12 -12 -12 -12 -11 -11 -10 -10 -10 -9 -9 -9 -9 -9 -8 -8 -7 -7 -7 -7 -7 -7 -7 -7 -7 -7 -7 -7 -7 -7 -6 -6 -7 -6 -6 -6 -6 -5 -5 -4 -4 -4 -4 -4 -4
-13 -13 -13 -14 -14 -14 -14 -14 -14 -14 -15 -15 -14 -14 -14 -14 -14 -13 -13 -13 -13 -13 -12 -12 -12 -12 -12 -12 -11 -11 -11 -10 -10 -10 -10 -9 -9 -9 -9 -8 -8 -8 -7 -8 -8 -7 -7 -7 -7 -8 -7 -7 -7 -7 -7 -7 -7 -7 -7 -6 -6 -6 -5 -5 -5 -5 -4 -4 -4
-13 -13 -13 -14 -14 -14 -14 -14 -14 -15 -15 -15 -14 -14 -14 -14 -14 -13 -13 -13 -13 -13 -13 -13 -12 -12 -12 -12 -12 -11 -11 -11 -11 -10 -10 -10 -10 -10 -9 -9 -8 -8 -8 -8 -8 -8 -7 -7 -7 -8 -8 -7 -7 -7 -7 -7 -7 -7 -7 -7 -7 -6 -6 -6 -6 -5 -5 -5 -5
-13 -13 -14 -14 -14 -14 -14 -14 -14 -15 -15 -14 -14 -14 -14 -14 -14 -14 -14 -13 -13 -13 -13 -13 -13 -12 -12 -12 -12 -12 -11 -11 -11 -11 -11 -11 -10 -10 -10 -9 -9 -8 -8 -8 -8 -8 -7 -7 -7 -8 -8 -8 -7 -7 -7 -7 -8 -8 -7 -7 -7 -7 -7 -7 -6 -6 -6 -5 -5
-13 -14 -14 -14 -14 -14 -14 -14 -14 -15 -15 -14 -14 -14 -14 -13 -14 -14 -14 -13 -13 -13 -13 -13 -13 -12 -12 -12 -12 -12 -12 -11 -11 -11 -11 -11 -11 -10 -10 -9 -9 -8 -8 -8 -8 -8 -7 -7 -7 -8 -8 -8 -8 -7 -8 -8 -8 -8 -8 -8 -8 -7 -7 -7 -7 -7 -6 -6 -6
-13 -14 -14 -14 -14 -14 -14 -14 -14 -15 -15 -14 -14 -14 -14 -14 -14 -14 -14 -14 -13 -13 -13 -13 -13 -12 -12 -12 -12 -12 -12 -12 -12 -12 -11 -11 -11 -10 -10 -10 -9 -9 -8 -8 -8 -8 -7 -7 -7 -8 -8 -8 -8 -8 -8 -8 -8 -8 -8 -8 -8 -8 -7 -7 -7 -7 -7 -7 -6
-14 -14 -14 -14 -14 -14 -14 -14 -14 -14 -14 -14 -14 -14 -14 -14 -14 -14 -14 -14 -14 -14 -13 -13 -13 -12 -12 -13 -12 -12 -12 -12 -12 -12 -11 -11 -11 -11 -10 -10 -10 -9 -8 -8 -8 -8 -7 -7 -8 -8 -8 -8 -8 -8 -8 -8 -8 -8 -8 -8 -8 -8 -8 -7 -7 -7 -7 -7 -7
-14 -14 -14 -14 -14 -14 -14 -14 -14 -14 -14 -14 -14 -14 -14 -14 -14 -14 -14 -14 -14 -14 -13 -13 -13 -13 -13 -13 -13 -12 -12 -12 -12 -12 -11 -11 -11 -11 -11 -10 -10 -9 -9 -9 -8 -8 -8 -7 -8 -8 -8 -8 -8 -8 -8 -8 -8 -8 -9 -8 -8 -8 -8 -7 -7 -7 -7 -7 -7
-14 -14 -14 -14 -14 -14 -14 -14 -14 -14 -14 -14 -14 -14 -14 -14 -14 -14 -14 -14 -14 -14 -13 -13 -13 -13 -13 -13 -13 -12 -12 -12 -12 -12 -11 -11 -11 -11 -11 -11 -10 -10 -9 -9 -8 -8 -8 -8 -8 -8 -8 -8 -8 -8 -8 -8 -8 -8 -8 -8 -8 -8 -8 -7 -7 -8 -8 -8 -7
-14 -14 -14 -14 -14 -14 -14 -14 -14 -14 -14 -14 -14 -14 -14 -14 -14 -14 -14 -14 -14 -14 -13 -13 -13 -13 -13 -13 -13 -13 -12 -12 -12 -12 -12 -11 -11 -11 -11 -11 -11 -10 -9 -9 -9 -8 -8 -8 -8 -8 -8 -8 -8 -8 -8 -8 -8 -8 -8 -8 -8 -8 -7 -7 -7 -8 -8 -8 -8
-14 -14 -14 -14 -14 -14 -14 -14 -14 -14 -14 -14 -14 -14 -14 -14 -14 -14 -14 -14 -14 -14 -13 -13 -13 -13 -13 -13 -13 -13 -13 -12 -12 -12 -12 -12 -12 -12 -12 -11 -11 -10 -10 -9 -9 -9 -9 -8 -8 -8 -8 -8 -8 -8 -8 -8 -8 -8 -8 -8 -8 -8 -7 -7 -7 -7 -8 -8 -8
-14 -14 -14 -14 -14 -14 -14 -14 -14 -13 -14 -14 -14 -14 -14 -14 -14 -14 -14 -14 -14 -14 -13 -13 -13 -13 -13 -13 -13 -13 -13 -13 -13 -12 -12 -12 -12 -12 -12 -12 -11 -10 -10 -9 -9 -9 -9 -8 -8 -8 -8 -8 -8 -8 -8 -8 -8 -8 -8 -8 -8 -8 -8 -8 -7 -7 -7 -8 -8
-14 -14 -14 -14 -14 -14 -14 -14 -14 -13 -14 -14 -14 -14 -14 -14 -14 -14 -14 -14 -14 -14 -13 -13 -13 -13 -13 -13 -13 -13 -13 -13 -13 -13 -12 -12 -12 -12 -12 -12 -11 -11 -10 -9 -9 -10 -9 -8 -8 -9 -8 -8 -8 -8 -8 -8 -8 -8 -8 -8 -8 -8 -8 -8 -7 -7 -7 -7 -8
-14 -14 -14 -14 -14 -14 -14 -14 -14 -14 -14 -14 -14 -14 -14 -14 -14 -14 -14 -14 -14 -14 -14 -13 -13 -13 -13 -13 -13 -13 -13 -13 -13 -13 -13 -12 -12 -12 -12 -12 -12 -11 -10 -10 -9 -10 -9 -8 -8 -9 -9 -9 -9 -9 -9 -8 -8 -8 -8 -8 -8 -8 -8 -8 -8 -7 -7 -7 -7
-14 -14 -14 -14 -14 -14 -14 -14 -14 -14 -14 -14 -14 -14 -14 -14 -14 -14 -14 -14 -14 -14 -14 -14 -14 -13 -13 -13 -13 -13 -13 -12 -13 -13 -13 -13 -12 -12 -12 -12 -12 -11 -10 -10 -10 -10 -9 -8 -8 -9 -9 -9 -9 -9 -9 -9 -9 -9 -8 -8 -8 -8 -8 -8 -8 -8 -8 -8 -8
-13 -14 -14 -14 -14 -14 -14 -14 -14 -14 -14 -14 -14 -14 -14 -14 -14 -14 -14 -14 -14 -14 -14 -14 -14 -14 -14 -13 -13 -13 -13 -12 -12 -13 -13 -13 -12 -12 -12 -12 -12 -11 -11 -10 -10 -10 -9 -9 -9 -9 -9 -9 -9 -9 -9 -9 -9 -9 -9 -8 -8 -8 -8 -8 -8 -9 -8 -8 -9
-13 -13 -13 -14 -14 -14 -14 -14 -14 -14 -14 -14 -14 -14 -14 -14 -14 -14 -14 -14 -14 -14 -14 -14 -14 -14 -14 -13 -13 -13 -13 -13 -13 -13 -13 -13 -12 -12 -12 -12 -12 -11 -11 -10 -10 -10 -10 -9 -9 -9 -9 -9 -9 -9 -9 -9 -9 -9 -9 -9 -9 -8 -8 -8 -8 -8 -8 -9 -9
Height
1521 1520 1518 1516 1515 1513 1511 1509 1508 1506 1504 1502 1500 1497 1496 1495 1493 1491 1490 1488 1486 1483 1481 1479 1478 1476 1474 1472 1471 1470 1468 1466 1465 1463 1461 1460 1457 1456 1453 1451 1449 1447 1445 1443 1441 1439 1436 1435 1433 1431 1429 1426 1425 1423 1422 1421 1420 1419 1417 1416 1416 1415 1414 1414 1413 1413 1413 1414 1414
1521 1519 1518 1516 1514 1512 1510 1508 1506 1505 1503 1501 1499 1497 1496 1494 1492 1491 1488 1486 1484 1482 1480 1478 1477 1475 1473 1471 1470 1469 1467 1465 1463 1461 1460 1458 1456 1454 1452 1450 1448 1446 1444 1441 1439 1437 1435 1433 1431 1428 1426 1424 1422 1421 1419 1418 1417 1416 1415 1414 1413 1412 1411 1411 1410 1410 1411 1411 1411
1520 1518 1516 1515 1513 1511 1509 1507 1506 1504 1502 1500 1498 1497 1496 1494 1492 1490 1487 1485 1483 1481 1480 1477 1476 1474 1472 1471 1469 1467 1466 1464 1462 1460 1459 1457 1455 1453 1451 1449 1446 1444 1442 1440 1438 1436 1433 1431 1429 1426 1424 1421 1420 1418 1416 1416 1415 1414 1413 1412 1411 1410 1409 1408 1408 1408 1409 1409 1410
1520 1518 1516 1514 1512 1511 1509 1507 1505 1503 1501 1499 1498 1496 1495 1493 1491 1489 1486 1484 1482 1480 1479 1477 1475 1473 1471 1470 1468 1466 1464 1462 1461 1459 1457 1456 1454 1452 1450 1447 1445 1443 1441 1438 1436 1434 1432 1429 1426 1424 1421 1419 1417 1416 1414 1413 1412 1412 1411 1410 1409 1408 1407 1406 1406 1406 1407 1407 1407
1519 1517 1515 1513 1512 1510 1508 1506 1504 1502 1500 1499 1497 1496 1494 1492 1490 1488 1486 1483 1481 1480 1478 1476 1474 1472 1471 1469 1466 1465 1463 1461 1460 1458 1456 1454 1452 1450 1448 1446 1444 1441 1439 1437 1434 1432 1430 1427 1425 1422 1419 1417 1415 1414 1412 1411 1411 1410 1409 1408 1407 1406 1405 1404 1404 1404 1404 1405 1405
1518 1516 1515 1513 1511 1509 1507 1506 1504 1502 1500 1498 1497 1495 1493 1492 1490 1487 1485 1483 1481 1479 1477 1475 1474 1472 1470 1468 1466 1463 1461 1460 1458 1456 1455 1452 1451 1448 1446 1445 1442 1440 1438 1436 1433 1431 1428 1425 1423 1420 1417 1416 1414 1412 1411 1410 1409 1408 1407 1406 1406 1405 1403 1403 1402 1403 1403 1403 1403
1517 1515 1514 1512 1510 1508 1506 1505 1502 1501 1499 1497 1496 1494 1493 1491 1489 1486 1484 1482 1480 1478 1476 1475 1473 1471 1469 1467 1465 1463 1461 1459 1457 1456 1454 1451 1449 1447 1446 1443 1441 1439 1437 1435 1432 1429 1427 1424 1421 1419 1416 1414 1412 1411 1410 1409 1408 1407 1406 1405 1404 1403 1402 1402 1401 1401 1401 1401 1401
1516 1515 1513 1511 1509 1507 1505 1503 1501 1500 1498 1496 1495 1493 1491 1490 1487 1485 1483 1481 1479 1477 1476 1474 1472 1470 1468 1466 1465 1462 1461 1459 1457 1455 1453 1451 1448 1446 1445 1443 1441 1438 1436 1434 1431 1429 1426 1424 1421 1418 1415 1413 1411 1410 1409 1408 1407 1406 1405 1404 1403 1402 1401 1401 1400 1400 1400 1400 1400
1515 1513 1511 1510 1508 1506 1504 1502 1501 1499 1497 1496 1494 1492 1491 1489 1486 1484 1482 1480 1478 1477 1475 1473 1471 1470 1468 1466 1464 1462 1460 1459 1456 1454 1452 1450 1448 1446 1444 1442 1440 1438 1436 1434 1431 1428 1426 1423 1421 1418 1415 1413 1411 1409 1407 1406 1405 1404 1404 1403 1402 1401 1401 1400 1399 1399 1399 1398 1398
1514 1512 1510 1508 1506 1505 1503 1501 1499 1498 1496 1495 1493 1491 1489 1487 1486 1483 1481 1480 1478 1476 1475 1473 1471 1469 1467 1465 1464 1462 1460 1458 1456 1454 1452 1450 1447 1446 1443 1441 1439 1437 1435 1433 1431 1428 1426 1423 1420 1417 1415 1413 1411 1408 1407 1405 1404 1403 1402 1402 1401 1400 1400 1399 1398 1398 1397 1397 1396
1513 1511 1509 1507 1506 1503 1501 1500 1498 1496 1495 1493 1491 1490 1488 1486 1484 1482 1481 1479 1477 1475 1474 1472 1470 1468 1466 1465 1463 1461 1460 1458 1456 1454 1451 1449 1447 1445 1443 1441 1439 1437 1435 1432 1430 1428 1425 1422 1420 1417 1415 1413 1410 1408 1406 1404 1403 1402 1401 1400 1400 1400 1399 1398 1398 1397 1396 1396 1395
1512 1510 1508 1506 1504 1502 1500 1498 1496 1495 1493 1492 1490 1489 1487 1485 1483 1481 1479 1478 1476 1474 1472 1471 1469 1467 1466 1464 1462 1460 1459 1457 1456 1453 1451 1448 1446 1444 1442 1440 1439 1436 1434 1432 1430 1428 1425 1422 1420 1417 1415 1412 1410 1408 1406 1404 1402 1401 1400 1399 1398 1397 1397 1396 1396 1395 1394 1394 1393
1511 1509 1507 1505 1503 1501 1499 1497 1496 1494 1492 1491 1490 1488 1486 1484 1482 1480 1478 1476 1475 1473 1471 1470 1468 1466 1465 1463 1461 1460 1458 1457 1455 1453 1451 1448 1446 1443 1441 1440 1438 1436 1434 1432 1430 1427 1425 1423 1420 1418 1415 1413 1411 1408 1406 1404 1402 1400 1399 1397 1396 1396 1394 1393 1393 1392 1392 1391 1391
1510 1508 1506 1504 1502 1500 1498 1496 1495 1493 1492 1490 1489 1487 1485 1483 1481 1479 1477 1475 1474 1472 1470 1469 1467 1466 1464 1462 1461 1459 1458 1456 1454 1452 1450 1447 1445 1443 1441 1439 1437 1436 1433 1431 1429 1427 1425 1423 1421 1418 1416 1413 1411 1408 1406 1404 1402 1400 1398 1397 1396 1395 1394 1393 1392 1391 1390 1390 1389
1508 1506 1505 1503 1501 1499 1497 1496 1494 1492 1491 1490 1488 1487 1485 1483 1481 1478 1476 1474 1472 1471 1469 1468 1466 1465 1463 1461 1460 1459 1458 1456 1453 1451 1449 1446 1444 1442 1440 1438 1436 1435 1432 1430 1428 1426 1425 1423 1421 1418 1416 1413 1411 1409 1406 1404 1402 1400 1398 1396 1395 1393 1392 1391 1390 1389 1389 1388 1388
1507 1505 1503 1502 1500 1498 1496 1495 1494 1492 1491 1490 1488 1486 1484 1482 1480 1477 1476 1473 1471 1470 1468 1467 1465 1463 1461 1460 1459 1458 1457 1455 1452 1450 1448 1446 1443 1441 1439 1437 1435 1433 1431 1429 1427 1426 1425 1423 1421 1418 1416 1414 1411 1409 1406 1404 1402 1400 1398 1396 1394 1393 1391 1390 1389 1388 1388 1387 1387
1506 1505 1503 1501 1499 1498 1496 1495 1493 1492 1491 1489 1487 1486 1484 1481 1479 1476 1475 1473 1471 1469 1467 1466 1464 1462 1461 1459 1458 1457 1456 1454 1451 1450 1447 1445 1443 1440 1438 1436 1435 1433 1431 1429 1427 1426 1424 1422 1420 1418 1416 1414 1411 1409 1407 1404 1402 1400 1398 1396 1395 1393 1391 1390 1389 1388 1387 1386 1386
1506 1504 1502 1501 1499 1497 1496 1494 1493 1492 1490 1488 1487 1485 1483 1481 1478 1476 1474 1472 1470 1468 1466 1464 1463 1461 1460 1458 1457 1456 1455 1453 1451 1449 1447 1445 1442 1440 1438 1436 1434 1432 1430 1428 1426 1425 1423 1422 1420 1418 1416 1414 1411 1409 1407 1405 1402 1400 1398 1396 1395 1393 1392 1391 1390 1388 1387 1386 1386
1505 1503 1501 1500 1498 1497 1495 1494 1492 1491 1489 1488 1486 1484 1482 1480 1477 1475 1472 1471 1469 1467 1465 1463 1461 1460 1459 1457 1456 1455 1454 1452 1450 1448 1446 1444 1442 1439 1437 1436 1434 1431 1430 1428 1426 1425 1423 1421 1420 1418 1416 1413 1411 1409 1407 1405 1403 1401 1399 1396 1395 1393 1392 1391 1390 1389 1387 1386 1385
1505 1503 1501 1500 1498 1496 1495 1493 1492 1491 1489 1487 1485 1483 1481 1479 1476 1474 1472 1470 1468 1466 1464 1462 1461 1459 1458 1456 1455 1454 1452 1451 1449 1447 1446 1444 1441 1439 1437 1435 1434 1431 1429 1427 1425 1424 1423 1421 1420 1417 1415 1413 1411 1409 1407 1405 1403 1401 1399 1397 1395 1394 1392 1391 1390 1389 1388 1386 1386
1505 1503 1501 1500 1498 1496 1495 1493 1491 1490 1488 1486 1485 1483 1481 1478 1476 1473 1471 1469 1467 1465 1463 1462 1460 1458 1456 1455 1454 1453 1451 1450 1449 1447 1445 1443 1441 1439 1437 1436 1434 1431 1429 1426 1425 1424 1423 1421 1419 1417 1415 1413 1411 1409 1407 1405 1403 1401 1399 1397 1396 1394 1393 1391 1390 1389 1388 1387 1386
1504 1503 1501 1499 1498 1496 1494 1493 1491 1490 1488 1486 1484 1482 1480 1477 1475 1473 1471 1468 1466 1464 1463 1461 1459 1457 1456 1455 1453 1452 1451 1449 1448 1446 1445 1443 1440 1438 1436 1436 1434 1431 1429 1426 1424 1423 1423 1421 1419 1417 1415 1413 1411 1409 1406 1405 1403 1401 1399 1397 1396 1395 1393 1392 1391 1390 1388 1387 1386
1504 1502 1501 1499 1497 1496 1494 1492 1491 1489 1487 1486 1484 1481 1479 1476 1474 1472 1470 1467 1466 1464 1462 1460 1458 1456 1455 1454 1453 1451 1450 1448 1447 1446 1444 1442 1440 1438 1436 1435 1433 1431 1428 1425 1423 1424 1424 1421 1419 1416 1415 1412 1411 1409 1407 1405 1403 1401 1399 1398 1396 1395 1394 1393 1391 1390 1389 1388 1387
1504 1502 1500 1499 1497 1495 1494 1492 1490 1488 1487 1485 1483 1481 1478 1476 1473 1471 1469 1467 1465 1463 1461 1459 1458 1456 1455 1453 1452 1451 1449 1447 1446 1445 1443 1441 1439 1437 1436 1435 1433 1431 1428 1425 1423 1425 1425 1422 1419 1416 1415 1413 1411 1409 1407 1405 1403 1401 1400 1398 1396 1395 1394 1393 1392 1391 1390 1389 1388
1503 1501 1500 1498 1496 1495 1493 1491 1490 1488 1486 1485 1482 1480 1477 1475 1473 1471 1468 1466 1464 1462 1461 1459 1457 1456 1454 1452 1451 1450 1448 1447 1446 1444 1442 1440 1438 1437 1435 1434 1432 1430 1428 1425 1424 1425 1425 1422 1420 1417 1415 1413 1411 1409 1407 1406 1404 1402 1400 1398 1397 1396 1395 1394 1393 1392 1391 1390 1389
1503 1501 1499 1498 1496 1494 1493 1491 1489 1488 1486 1484 1482 1479 1477 1475 1472 1470 1468 1466 1464 1462 1460 1458 1457 1456 1454 1452 1451 1449 1448 1446 1445 1444 1442 1440 1438 1436 1435 1433 1431 1430 1428 1425 1424 1425 1425 1422 1420 1418 1415 1413 1411 1410 1408 1406 1405 1403 1401 1399 1398 1396 1395 1394 1393 1392 1391 1391 1390
1502 1501 1499 1497 1496 1494 1492 1491 1489 1487 1486 1484 1481 1479 1476 1475 1472 1470 1468 1466 1464 1461 1460 1458 1457 1456 1454 1452 1451 1449 1448 1446 1445 1443 1441 1440 1438 1436 1435 1433 1431 1430 1428 1426 1424 1424 1424 1422 1420 1417 1416 1413 1412 1410 1408 1407 1406 1404 1402 1400 1399 1397 1396 1395 1394 1393 1392 1391 1391
1502 1501 1499 1497 1495 1494 1492 1490 1488 1487 1485 1483 1481 1478 1476 1474 1472 1470 1467 1466 1463 1461 1460 1458 1457 1456 1454 1452 1451 1449 1448 1446 1445 1443 1441 1440 1438 1436 1435 1433 1431 1430 1428 1426 1424 1423 1422 1421 1419 1417 1416 1414 1412 1411 1409 1407 1406 1405 1403 1401 1400 1398 1397 1396 1395 1394 1393 1392 1391
1502 1500 1498 1497 1495 1493 1491 1490 1488 1486 1485 1483 1481 1478 1476 1474 1472 1470 1467 1465 1463 1461 1460 1458 1457 1456 1454 1453 1451 1450 1448 1446 1445 1443 1441 1440 1438 1436 1435 1433 1431 1430 1428 1426 1424 1422 1421 1420 1418 1416 1415 1414 1412 1411 1409 1408 1406 1405 1404 1402 1401 1400 1398 1397 1396 1395 1394 1393 1392
1502 1500 1498 1497 1495 1493 1491 1490 1488 1486 1485 1482 1480 1478 1476 1474 1471 1469 1467 1465 1463 1462 1461 1459 1458 1456 1455 1453 1452 1450 1448 1446 1445 1444 1442 1440 1438 1436 1435 1433 1431 1429 1428 1426 1423 1422 1421 1419 1417 1416 1415 1414 1413 1411 1410 1408 1407 1406 1404 1403 1402 1401 1400 1398 1397 1396 1395 1394 1393
1502 1500 1498 1496 1495 1493 1491 1490 1488 1486 1484 1482 1480 1478 1476 1473 1471 1470 1467 1466 1464 1462 1461 1460 1458 1456 1455 1454 1452 1450 1448 1447 1445 1444 1442 1440 1438 1436 1435 1433 1431 1429 1427 1426 1424 1423 1422 1420 1418 1416 1415 1414 1413 1411 1410 1409 1407 1406 1405 1404 1403 1402 1401 1400 1398 1397 1396 1395 1394
1502 1500 1498 1496 1495 1493 1491 1490 1488 1486 1484 1482 1480 1477 1476 1474 1472 1470 1468 1466 1464 1463 1461 1459 1458 1456 1455 1453 1452 1450 1449 1447 1446 1444 1442 1441 1438 1436 1435 1433 1431 1429 1428 1426 1425 1424 1423 1421 1418 1416 1416 1414 1413 1412 1411 1409 1408 1407 1406 1405 1404 1403 1402 1401 1400 1398 1397 1396 1395
1501 1500 1498 1496 1495 1493 1491 1489 1487 1486 1484 1481 1480 1477 1476 1474 1472 1470 1468 1466 1465 1463 1461 1460 1458 1456 1455 1454 1452 1451 1449 1447 1446 1444 1442 1441 1439 1437 1435 1433 1431 1430 1428 1427 1425 1425 1424 1421 1418 1417 1416 1415 1413 1412 1411 1410 1409 1408 1407 1406 1405 1404 1403 1402 1401 1400 1398 1397 1396
1501 1500 1498 1496 1494 1493 1491 1489 1487 1486 1483 1481 1479 1477 1476 1473 1471 1470 1468 1466 1465 1464 1462 1461 1459 1457 1456 1454 1452 1451 1449 1448 1446 1445 1443 1441 1439 1437 1435 1433 1431 1430 1429 1427 1426 1425 1425 1422 1419 1417 1416 1415 1414 1413 1412 1411 1410 1409 1408 1407 1406 1406 1405 1403 1402 1401 1400 1398 1397
1501 1499 1497 1496 1494 1492 1491 1489 1487 1485 1483 1481 1479 1477 1475 1474 1472 1470 1468 1466 1465 1464 1462 1461 1459 1457 1456 1454 1453 1451 1450 1448 1446 1445 1443 1441 1439 1437 1435 1433 1432 1431 1430 1428 1426 1426 1425 1423 1420 1418 1416 1415 1414 1413 1413 1412 1411 1410 1409 1408 1407 1406 1406 1404 1403 1402 1401 1400 1399
1501 1499 1497 1496 1494 1492 1491 1489 1487 1485 1483 1481 1479 1477 1475 1473 1471 1470 1468 1467 1465 1464 1462 1461 1459 1457 1456 1454 1453 1451 1450 1448 1447 1445 1443 1441 1439 1437 1435 1433 1432 1431 1430 1428 1426 1426 1425 1425 1421 1419 1417 1416 1415 1414 1413 1412 1411 1411 1410 1409 1408 1407 1406 1405 1405 1404 1403 1402 1401
1501 1499 1497 1496 1494 1492 1491 1489 1487 1485 1483 1481 1479 1477 1475 1473 1471 1470 1468 1466 1465 1464 1462 1461 1459 1458 1456 1455 1453 1451 1450 1449 1447 1445 1444 1442 1440 1437 1436 1434 1432 1431 1430 1429 1427 1426 1426 1426 1422 1419 1418 1417 1416 1415 1414 1413 1412 1411 1411 1410 1409 1408 1407 1406 1406 1405 1404 1404 1403
1501 1499 1497 1496 1494 1492 1490 1489 1487 1485 1483 1481 1479 1477 1475 1473 1471 1470 1468 1467 1465 1464 1462 1461 1459 1458 1456 1455 1454 1452 1451 1449 1447 1446 1444 1442 1440 1438 1436 1434 1432 1431 1430 1429 1428 1426 1426 1427 1423 1420 1419 1418 1417 1416 1415 1414 1413 1412 1412 1411 1410 1409 1408 1408 1407 1406 1405 1405 1405
1501 1499 1497 1496 1494 1492 1490 1488 1487 1485 1483 1481 1479 1477 1475 1473 1472 1470 1469 1467 1466 1464 1462 1461 1460 1458 1456 1455 1454 1452 1451 1449 1448 1446 1444 1442 1441 1439 1437 1435 1433 1432 1431 1430 1428 1427 1427 1428 1424 1421 1420 1419 1418 1417 1416 1415 1414 1414 1413 1412 1411 1410 1409 1409 1408 1406 1406 1405 1406
1501 1499 1497 1496 1494 1492 1490 1488 1486 1485 1483 1481 1479 1477 1475 1474 1472 1470 1469 1467 1466 1464 1462 1461 1460 1458 1457 1455 1454 1452 1451 1449 1448 1446 1445 1443 1441 1439 1437 1436 1434 1432 1431 1430 1429 1427 1427 1428 1425 1422 1421 1420 1419 1418 1417 1416 1416 1415 1414 1413 1412 1411 1411 1410 1409 1408 1407 1406 1406
1501 1499 1497 1495 1493 1491 1490 1488 1486 1484 1483 1481 1479 1477 1476 1474 1472 1470 1469 1467 1466 1464 1462 1461 1460 1458 1457 1455 1454 1452 1451 1449 1448 1446 1445 1443 1441 1440 1438 1436 1434 1433 1432 1431 1429 1428 1427 1428 1426 1424 1422 1421 1420 1419 1418 1417 1417 1416 1415 1415 1414 1413 1412 1411 1410 1409 1409 1408 1408
Wind_Speed
25 27 28 28 28 27 28 28 28 29 30 31 30 30 28 27 27 27 28 29 29 30 31 30 30 30 30 29 29 29 30 30 30 31 31 32 33 33 33 32 31 31 31 31 31 32 32 33 34 33 32 31 30 29 27 26 26 26 26 26 27 27 27 26 26 26 26 26 26
25 26 28 28 28 29 29 30 30 30 31 30 29 28 27 27 27 28 29 30 31 31 30 29 29 29 30 30 29 29 29 30 31 31 32 32 33 33 33 32 31 31 31 31 32 33 33 34 35 34 33 31 29 27 26 25 25 25 25 26 26 27 27 27 26 25 25 24 24
25 27 28 29 30 30 31 31 31 31 31 30 29 28 27 27 28 29 31 32 31 30 29 29 29 29 30 30 29 29 29 29 30 31 31 32 33 33 33 32 31 31 31 31 33 33 34 35 35 33 32 30 28 26 25 23 23 23 24 25 26 26 27 26 25 23 22 21 22
26 27 28 30 30 31 31 31 31 32 31 30 29 28 28 28 29 31 32 32 30 29 28 29 30 30 30 30 29 29 29 29 30 30 31 32 32 32 33 32 32 31 32 32 33 34 35 35 34 33 31 29 28 26 25 23 23 23 24 24 25 26 26 26 24 21 19 19 21
27 28 29 30 31 31 31 31 31 31 31 29 28 28 28 29 30 32 32 31 30 28 28 29 30 30 30 29 29 29 29 29 29 30 31 31 32 32 32 32 32 32 32 33 34 35 36 36 35 33 31 29 28 27 25 24 23 23 24 24 24 24 24 23 20 17 16 18 20
28 29 30 30 31 32 32 32 31 31 30 29 28 27 28 30 31 32 32 30 29 28 28 29 30 30 29 29 28 28 29 29 30 30 31 31 31 31 32 32 32 31 32 33 34 35 36 37 35 34 32 30 29 27 25 24 24 24 24 23 23 23 21 19 16 15 16 19 21
29 29 30 31 32 32 32 32 32 31 30 29 28 28 29 30 31 32 31 30 28 27 28 29 30 29 29 28 27 28 28 29 30 30 31 30 30 30 31 31 31 31 31 32 33 35 37 37 37 35 34 31 29 27 25 23 23 23 23 23 22 20 18 15 14 15 17 20 21
30 31 31 32 33 33 33 33 32 31 30 29 28 29 30 31 31 32 31 30 28 27 28 29 29 29 28 27 26 27 28 29 30 30 30 30 29 29 30 30 30 30 30 31 33 34 36 37 37 37 35 33 30 28 25 22 21 21 22 22 21 19 16 15 15 16 19 21 22
32 32 32 33 33 33 33 33 32 31 30 29 29 29 30 30 31 31 31 30 28 27 27 28 28 28 26 25 25 26 27 28 29 29 29 29 28 28 29 29 30 29 29 30 32 33 34 36 37 37 36 33 31 28 25 22 19 19 20 21 21 19 16 15 15 17 20 23 25
33 33 33 34 34 34 34 33 32 31 30 29 30 30 30 30 31 31 31 30 28 26 26 27 27 26 25 24 24 25 26 27 28 29 29 28 28 28 28 29 29 29 28 29 30 32 33 35 37 37 36 34 31 28 25 23 20 18 17 18 20 20 18 16 17 19 22 25 27
33 33 33 34 34 34 34 33 32 31 30 29 30 31 31 31 31 31 31 30 28 26 26 26 25 24 23 23 24 25 26 26 27 28 28 27 27 27 27 28 28 28 27 27 29 30 32 34 36 37 36 34 31 28 25 22 20 18 17 16 16 17 18 19 20 22 24 26 27
33 33 33 33 33 33 33 33 32 30 30 29 30 31 32 32 32 31 31 30 28 26 26 25 24 23 22 23 24 25 26 26 27 27 27 27 27 27 27 27 27 26 25 25 26 29 31 33 35 36 35 34 32 29 25 22 20 19 17 16 15 15 16 18 19 20 21 23 24
33 33 33 33 33 33 32 32 31 29 29 29 30 31 32 32 32 32 31 30 28 26 25 25 22 21 21 23 25 26 26 26 26 27 27 27 27 27 27 26 27 26 24 23 24 26 29 32 33 34 34 33 32 29 26 23 20 19 18 18 18 19 20 20 20 20 20 22 23
33 33 33 32 32 32 31 30 29 28 28 29 30 31 32 33 33 33 32 31 28 27 25 24 22 20 20 23 25 26 26 25 25 26 26 27 27 27 27 26 26 26 25 22 22 25 28 31 32 33 33 32 31 29 26 23 20 18 18 18 18 19 21 22 23 23 24 24 24
33 33 33 32 32 31 30 29 28 27 28 29 30 31 32 33 33 33 32 31 29 26 25 24 21 19 19 22 24 26 26 25 25 25 26 26 27 27 27 26 26 27 25 22 21 23 27 30 32 33 32 31 30 28 26 23 21 19 17 17 18 18 19 20 21 21 22 22 23
33 33 32 32 31 30 29 27 27 27 28 29 31 32 33 34 34 34 33 31 29 26 24 23 21 19 19 20 23 24 25 24 23 24 25 26 27 27 27 26 27 28 26 22 20 23 27 30 32 32 32 31 29 27 25 23 21 19 17 16 16 16 16 16 16 16 15 16 16
33 33 32 32 31 29 27 26 26 27 28 30 31 33 34 35 35 34 33 31 29 27 24 22 20 19 19 20 22 23 23 23 22 23 24 26 27 28 28 27 27 28 27 22 19 22 27 30 32 32 32 31 29 27 24 22 20 18 16 15 14 13 13 13 12 11 10 10 10
33 33 32 31 29 28 26 26 27 28 30 31 33 35 35 36 36 35 33 31 29 26 24 22 20 19 19 20 21 22 22 22 21 22 23 25 27 28 28 27 27 28 27 22 18 20 26 31 32 32 31 30 29 27 24 21 19 17 16 14 13 12 11 10 10 9 8 8 8
33 32 31 30 28 27 27 27 28 30 31 33 35 35 36 36 37 36 34 31 29 26 24 23 21 19 19 20 21 21 21 21 21 21 23 24 26 27 27 26 26 28 27 24 18 19 25 30 31 31 30 30 29 27 24 21 19 17 15 14 12 11 10 10 9 9 8 8 8
32 31 30 29 27 27 27 28 30 31 33 35 35 35 36 37 38 37 35 32 29 26 24 23 21 19 19 20 21 21 21 20 20 21 22 24 26 27 26 25 26 27 29 27 22 20 23 29 30 30 29 28 28 27 25 22 19 17 16 14 13 12 11 10 9 9 9 9 9
31 30 29 28 27 27 28 29 31 32 34 35 35 35 36 38 39 38 35 32 29 27 24 22 20 19 19 20 21 21 20 20 20 21 22 23 25 26 25 24 24 27 30 31 28 25 24 28 29 29 27 27 26 26 25 23 20 18 16 15 14 12 11 10 9 9 8 9 9
31 29 28 27 27 27 28 30 31 33 34 35 35 35 37 39 39 37 35 32 29 27 24 22 20 19 19 19 20 20 20 19 20 20 22 23 25 25 24 22 22 25 30 33 34 30 26 27 28 27 26 25 25 25 24 23 21 19 17 15 14 13 12 11 11 10 9 8 7
30 29 28 27 27 27 28 29 31 33 34 34 34 35 38 39 38 37 34 32 30 27 24 22 20 20 19 19 19 19 19 19 19 20 21 22 24 25 23 21 20 24 29 33 37 33 27 25 26 26 25 24 24 23 22 22 21 19 18 17 15 14 13 12 12 11 11 9 7
29 28 28 27 27 28 29 30 32 33 33 33 34 36 39 39 37 36 34 32 30 27 24 21 21 21 20 19 19 19 19 19 19 20 21 22 24 25 23 20 19 22 28 33 37 34 27 24 24 25 24 23 22 21 20 19 19 19 19 18 17 16 14 13 13 12 13 13 11
29 28 28 27 28 28 29 30 32 33 33 32 35 37 38 37 36 35 34 32 30 27 24 22 22 22 21 21 20 19 19 19 19 20 21 23 25 25 23 20 19 21 26 31 36 34 28 23 23 23 23 22 21 19 17 17 18 18 18 18 18 17 16 15 14 13 13 14 14
28 28 28 28 28 29 30 31 32 33 32 33 35 37 37 36 35 34 33 32 29 27 24 24 24 23 23 23 22 21 20 19 20 21 22 24 26 26 25 21 19 20 24 29 33 34 31 23 21 21 22 21 19 17 15 15 17 17 18 18 18 18 17 17 16 16 15 15 15
28 28 28 28 29 29 30 31 32 33 32 33 35 37 36 35 34 33 32 31 29 27 26 25 25 25 25 25 24 23 21 21 21 22 23 25 27 27 26 23 20 20 22 27 31 35 34 24 19 19 20 19 17 15 14 14 16 17 18 18 18 18 19 19 19 18 17 17 16
28 28 28 28 29 30 31 32 32 32 32 33 35 36 35 34 33 32 31 30 28 28 27 27 25 25 26 26 26 24 22 22 23 24 25 26 26 27 27 25 22 19 20 25 30 37 36 25 17 16 17 17 15 13 12 13 14 16 18 19 19 20 20 21 21 20 20 19 18
27 27 28 28 29 29 30 31 31 31 31 33 34 35 34 33 33 32 30 29 28 28 29 28 26 25 26 28 27 25 24 24 25 25 26 26 26 27 27 26 22 19 19 24 30 39 38 24 15 14 15 16 14 12 11 12 14 16 17 19 20 21 21 22 22 22 22 21 19
27 27 27 28 28 29 30 31 31 30 31 33 33 34 33 33 32 31 30 28 28 28 28 27 25 24 26 28 28 27 26 26 26 27 27 27 27 27 27 26 24 20 19 23 32 40 37 21 13 13 14 14 13 11 10 11 13 15 17 19 20 21 22 23 23 24 23 22 20
28 28 28 28 28 28 29 30 30 30 31 32 33 33 33 32 32 31 29 27 26 27 27 26 24 23 24 27 28 27 27 27 27 27 27 28 27 27 27 27 25 22 20 23 32 39 35 20 14 13 14 13 12 10 9 9 11 14 16 18 19 21 23 24 24 24 23 23 21
29 29 28 28 28 29 29 30 30 30 31 31 32 32 32 32 32 30 28 25 25 26 26 26 24 23 24 26 27 27 27 27 27 27 27 27 27 27 27 27 26 24 22 23 31 37 33 21 16 14 13 12 11 10 9 9 9 12 14 16 18 20 22 23 23 23 23 22 21
30 30 29 29 29 29 29 29 29 30 30 31 31 31 32 32 31 30 28 25 24 24 25 25 24 23 23 24 25 26 26 26 26 27 27 27 27 27 27 27 27 25 23 23 30 35 32 22 17 15 13 11 10 10 9 9 9 10 12 14 16 18 20 20 20 20 20 21 21
31 30 30 30 29 29 29 29 29 29 30 30 31 31 31 31 32 31 28 25 23 22 23 23 22 22 22 22 22 23 24 25 25 26 26 26 26 26 26 27 26 25 23 21 27 33 32 23 19 15 12 11 10 9 10 10 10 10 11 13 14 16 17 17 16 17 18 20 20
31 31 31 30 30 30 29 29 29 29 29 30 31 31 31 31 31 31 28 25 22 21 21 21 21 21 20 20 20 21 23 24 25 25 25 25 26 26 26 26 26 24 22 20 25 31 31 25 19 16 14 12 10 10 10 10 10 11 11 12 13 13 14 14 14 16 17 19 20
30 31 31 31 30 30 30 30 29 29 29 30 31 31 31 31 31 30 28 25 22 20 20 20 21 21 20 19 19 20 23 25 26 25 25 24 25 26 27 26 26 24 21 19 22 28 30 27 20 17 16 14 12 11 11 11 11 11 12 12 12 12 12 13 15 16 17 19 21
30 30 31 31 31 31 30 30 30 29 29 30 30 31 31 31 31 30 28 25 23 21 20 20 21 21 21 20 19 20 22 24 25 26 25 24 25 26 27 26 26 24 22 19 20 25 29 28 21 18 17 16 14 13 12 12 12 12 12 12 12 11 11 14 17 18 19 20 22
29 30 30 31 31 31 31 30 30 29 29 30 30 30 30 30 30 30 28 25 23 21 20 20 20 21 21 20 20 19 20 22 24 25 25 25 25 25 26 26 25 24 22 20 19 22 27 29 22 18 18 17 16 15 14 13 13 13 13 13 11 10 11 14 19 22 23 24 24
29 29 30 30 31 31 31 31 30 30 29 29 30 30 30 30 29 29 27 25 23 21 20 19 20 21 21 21 21 21 20 21 22 24 25 25 25 25 25 25 25 23 22 19 17 20 26 29 22 18 18 17 17 16 15 15 14 14 14 13 11 9 9 12 17 22 25 26 26
28 29 29 30 30 31 31 31 31 30 30 30 30 30 30 29 29 28 27 25 23 21 19 19 19 20 22 23 23 23 22 21 21 22 24 25 24 24 24 24 23 23 21 18 15 20 27 29 23 19 17 17 16 16 16 16 15 15 15 13 11 9 9 10 13 16 19 22 24
28 28 29 30 30 31 31 31 31 31 31 30 30 30 29 29 28 27 26 25 23 21 20 20 19 20 22 23 24 24 24 22 21 22 22 23 23 23 23 23 22 21 19 16 15 21 27 29 26 22 19 16 16 16 17 16 16 16 15 14 12 10 9 9 10 12 14 16 19
Wind_Direction
344 342 342 344 344 343 341 340 339 338 337 337 338 338 338 335 332 329 326 326 326 326 327 328 329 329 330 331 332 331 330 329 331 333 335 338 340 341 341 340 339 338 338 338 338 337 334 331 327 323 318 315 312 308 305 301 298 296 294 292 290 289 286 281 275 271 267 265 265
344 342 342 343 344 344 343 342 341 340 340 341 341 341 339 336 332 329 328 328 329 330 331 332 332 332 332 333 332 330 330 331 333 334 334 336 339 340 341 340 340 340 341 342 342 340 336 333 330 326 322 319 316 312 307 302 299 296 294 292 290 288 286 281 276 271 268 266 267
345 343 343 344 345 345 344 342 341 341 342 343 343 342 340 337 333 331 330 331 332 334 335 335 335 334 334 333 331 330 331 333 334 334 333 335 337 339 340 341 341 342 344 346 345 343 339 336 333 330 327 325 322 318 314 309 304 300 296 293 291 289 285 281 276 272 269 269 270
346 344 344 344 345 345 343 342 341 342 343 344 344 343 340 337 334 333 333 334 335 337 338 338 337 336 334 332 331 331 333 336 336 334 333 335 336 338 339 341 341 343 345 348 348 346 344 341 338 336 333 330 327 324 321 317 311 305 300 297 293 289 285 280 274 271 270 273 274
346 345 345 345 344 344 343 342 342 342 343 344 343 341 339 337 336 336 336 336 337 339 340 340 338 336 333 331 331 334 337 339 338 336 335 336 336 337 339 340 341 342 345 348 349 348 347 346 343 341 338 335 331 328 325 321 316 310 304 299 295 291 286 278 273 271 274 278 278
345 345 345 344 343 343 343 343 343 343 344 344 343 340 339 338 338 338 338 338 338 340 341 341 338 335 332 331 333 337 340 341 340 339 338 338 337 337 339 340 340 341 343 347 349 350 351 350 347 345 342 338 334 330 327 323 319 313 307 301 297 293 287 279 274 274 278 278 278
344 344 344 343 342 342 342 342 342 343 344 344 343 341 340 340 339 339 339 339 339 341 341 340 337 334 333 333 336 340 343 343 342 341 341 340 338 338 338 339 339 339 341 346 349 352 353 353 351 349 346 341 336 332 328 324 319 312 304 299 297 295 291 283 279 278 279 278 278
343 343 342 342 342 341 341 342 342 343 343 343 343 341 341 341 341 340 340 340 341 341 340 339 337 335 333 334 338 342 344 343 342 343 343 342 340 339 338 338 338 338 340 344 348 352 354 354 353 352 349 344 338 332 327 321 316 309 302 297 299 299 294 286 283 282 281 279 279
341 341 341 341 341 340 340 341 341 342 343 343 343 342 342 342 341 341 341 342 341 341 340 338 337 335 334 337 341 345 346 344 342 344 345 344 341 339 338 337 338 339 340 343 347 351 353 355 355 354 351 346 340 333 326 318 312 307 304 301 301 300 296 289 288 289 286 281 281
340 340 340 340 340 340 339 340 341 342 343 343 343 343 343 342 342 342 342 342 341 340 339 339 338 337 337 341 345 347 347 344 344 345 345 344 341 339 336 336 339 341 342 343 346 349 353 355 357 356 353 349 343 336 327 318 310 304 302 301 301 300 299 295 294 293 288 282 281
340 340 340 340 339 339 339 340 341 342 343 343 344 344 343 343 343 343 342 342 341 340 340 340 340 340 342 346 349 350 348 345 344 345 345 343 341 338 335 336 340 343 344 344 346 349 352 356 357 357 354 351 346 339 331 323 313 304 298 296 297 298 297 294 291 287 283 279 279
340 340 340 340 340 340 340 341 342 343 344 344 345 345 345 344 344 343 342 342 342 341 341 341 342 344 347 350 352 351 348 345 345 346 345 342 340 337 335 335 341 345 347 346 346 349 352 356 357 357 355 352 348 343 336 328 318 308 298 290 289 291 291 287 283 279 276 275 275
341 341 341 341 341 341 342 342 343 344 345 346 346 346 346 345 344 344 343 343 343 342 341 342 343 347 351 354 354 351 347 344 345 346 344 342 339 337 335 336 341 347 350 349 348 349 352 355 357 357 355 353 350 346 340 333 324 314 304 295 288 285 283 281 279 278 276 275 274
343 343 343 343 344 344 344 344 346 346 347 347 347 347 346 346 345 345 344 344 343 343 342 342 343 348 355 358 355 350 344 342 344 346 344 342 339 337 336 337 342 349 353 352 350 351 354 356 357 356 356 354 351 348 344 339 332 323 312 303 295 288 283 280 279 279 279 279 277
345 346 346 346 347 347 347 348 349 349 348 348 348 348 347 346 346 345 344 344 343 343 343 342 342 347 355 1 357 348 341 340 343 346 345 343 340 338 337 338 343 350 355 357 355 355 356 357 357 357 356 354 352 349 347 344 341 335 326 317 308 301 295 290 287 284 283 282 282
348 348 349 349 350 350 351 352 352 350 349 349 349 349 348 347 346 345 344 343 343 343 343 342 341 343 351 360 357 348 339 337 342 346 346 344 341 339 339 341 345 352 358 2 2 0 359 358 357 357 356 355 352 350 348 347 347 345 342 335 327 320 314 308 303 297 292 287 285
350 350 351 352 352 353 354 355 354 352 351 350 350 350 349 348 346 344 343 343 343 343 343 342 340 340 345 352 352 345 337 337 342 347 347 344 341 339 340 343 348 354 0 7 8 4 1 359 358 357 356 355 353 350 348 348 349 350 350 347 341 334 327 321 315 308 300 292 285
351 352 352 353 354 356 357 357 356 354 352 352 351 350 349 348 347 345 343 342 342 343 343 342 340 338 340 344 345 341 337 337 343 347 347 344 340 339 340 344 349 356 3 10 12 6 1 359 357 356 356 355 353 351 349 348 348 350 353 353 349 343 335 327 319 311 303 296 286
352 353 354 355 356 358 358 358 356 354 353 352 351 349 348 348 348 346 344 342 342 343 343 342 340 338 337 339 339 338 337 339 343 346 346 343 339 337 339 344 351 359 5 10 12 6 0 357 356 356 356 356 354 352 351 349 348 349 352 355 355 351 344 336 326 317 310 303 293
353 353 354 356 357 358 358 357 356 354 353 351 350 348 347 347 348 347 346 344 343 343 343 343 341 340 339 339 338 337 337 339 343 345 345 342 338 336 338 344 353 1 6 8 10 5 359 355 355 356 357 357 355 353 352 351 350 350 350 354 357 359 357 350 340 329 318 308 298
352 353 354 356 357 358 357 356 355 353 351 351 349 348 347 348 348 348 347 345 344 344 344 344 343 343 343 342 340 338 336 338 341 344 344 340 336 334 336 343 353 1 6 7 9 5 358 352 353 355 358 358 356 355 353 354 354 354 353 354 357 1 5 6 1 351 336 320 305
352 353 354 355 356 357 356 355 353 351 351 350 349 347 347 348 349 349 348 347 347 346 346 345 347 348 349 347 344 340 338 338 340 343 342 338 334 332 334 341 351 359 4 7 9 6 358 350 351 354 358 359 357 355 355 356 358 359 359 358 358 0 5 12 16 15 7 350 324
351 352 353 353 354 354 354 353 352 351 351 350 348 346 347 348 349 349 350 350 349 348 348 348 351 353 354 352 349 344 340 339 340 341 340 336 333 331 332 337 346 355 1 5 7 5 359 351 350 353 357 359 358 357 357 358 1 4 6 5 3 3 4 10 18 25 29 27 15
350 351 352 352 352 353 353 352 352 352 351 349 347 346 347 348 349 350 351 352 352 351 350 352 356 358 358 357 354 350 346 342 340 339 338 334 333 332 332 333 339 350 358 3 5 4 359 353 350 352 356 358 358 358 0 4 8 11 12 12 11 9 8 9 14 22 32 39 44
350 350 351 351 351 351 352 351 351 352 351 348 347 347 348 349 350 352 353 354 353 353 354 357 0 1 2 1 359 355 351 346 343 339 335 333 334 335 335 332 335 344 354 0 2 3 1 355 352 352 355 357 358 0 6 13 18 20 19 18 17 15 14 13 14 17 23 32 41
350 350 350 350 351 350 350 349 350 351 350 347 346 347 349 350 352 353 355 355 355 356 358 1 3 4 5 4 2 359 355 351 347 342 338 336 337 339 338 334 333 341 352 359 0 1 360 355 352 353 355 358 359 4 13 24 28 28 27 25 22 20 19 19 18 17 18 21 27
350 351 351 350 350 349 348 348 349 351 349 346 346 348 350 352 353 355 356 357 357 359 2 3 4 5 7 7 5 2 359 355 351 347 343 341 342 344 343 338 335 340 351 358 358 357 356 352 351 353 356 359 1 8 21 30 33 33 32 30 27 24 24 23 22 21 19 18 18
351 351 351 350 350 348 347 347 350 350 348 346 347 349 351 353 355 357 358 358 0 2 4 3 4 6 8 8 6 3 1 359 356 352 348 346 346 347 347 343 339 340 349 358 358 354 351 348 349 354 358 1 3 13 26 33 32 31 32 32 30 28 27 27 26 25 24 23 21
351 352 351 350 349 347 346 347 349 349 347 347 348 349 351 354 356 358 359 0 3 5 4 2 2 4 6 7 6 4 3 2 360 356 352 349 349 350 350 347 341 340 346 355 356 354 351 349 353 359 1 3 6 16 27 30 25 24 26 29 30 30 29 29 29 29 29 28 27
353 352 351 350 348 346 346 347 349 349 348 349 349 350 352 355 357 359 0 2 5 5 4 1 1 2 4 6 6 5 4 3 1 358 354 352 351 351 351 349 344 339 342 351 355 355 356 359 5 6 4 4 7 16 25 26 18 15 18 23 28 30 31 31 30 30 30 30 29
354 353 351 349 348 347 346 347 349 350 350 350 350 351 353 355 357 359 0 2 5 5 3 1 0 0 2 4 6 5 4 3 2 359 356 354 353 353 353 351 346 341 341 350 356 359 2 10 13 9 5 4 8 15 24 26 18 13 13 18 25 31 34 33 31 30 29 30 29
355 354 351 349 348 347 347 347 349 351 351 351 352 352 353 355 356 358 0 2 4 4 3 1 1 1 1 4 6 6 5 4 3 1 358 355 354 354 354 353 349 346 345 352 359 2 5 12 12 6 3 5 10 16 22 26 22 16 14 17 25 33 37 36 33 30 29 29 28
356 354 351 349 348 347 347 348 349 351 352 352 352 353 354 355 356 357 359 2 4 3 2 2 3 4 4 5 7 8 7 6 4 2 360 357 355 355 356 355 352 350 350 354 0 4 7 9 7 5 5 8 13 18 22 25 24 20 17 19 26 34 40 41 38 34 32 31 30
356 353 351 349 348 348 348 348 349 350 351 352 353 354 354 355 355 356 358 0 2 1 1 3 6 7 7 7 9 10 9 7 6 4 1 358 356 356 356 356 354 352 352 355 1 5 7 8 6 6 10 14 19 23 26 28 27 24 22 23 30 37 42 44 44 42 40 37 34
355 353 350 349 348 348 347 348 349 350 352 353 354 354 354 355 355 355 356 357 358 358 359 2 6 8 8 8 9 10 10 9 8 6 3 359 356 355 356 355 353 351 351 355 2 6 7 9 10 13 17 21 24 27 30 33 33 32 30 31 37 43 46 44 46 50 51 46 42
355 353 350 349 348 347 347 347 348 350 352 354 354 354 353 354 354 355 355 354 354 354 355 359 4 7 8 7 8 9 9 8 8 6 3 360 357 356 355 353 351 349 349 352 1 6 9 12 16 19 21 24 26 29 32 37 39 40 40 43 47 49 46 40 43 53 61 58 51
355 354 351 349 348 347 346 346 347 349 352 354 354 353 352 352 353 354 353 352 351 349 350 353 359 3 4 3 4 6 7 7 6 4 3 0 359 357 354 352 350 348 346 347 355 3 8 13 19 23 22 24 26 30 33 39 43 47 50 54 57 55 46 38 43 55 65 65 58
355 354 352 350 348 347 346 345 346 349 351 353 354 353 352 351 351 352 352 350 348 345 345 347 352 356 357 356 356 359 3 5 4 2 0 360 359 357 354 351 349 347 345 343 349 358 5 12 21 25 23 23 26 30 35 41 46 51 56 61 65 60 48 41 46 56 63 65 60
355 354 353 351 350 348 346 346 346 348 351 353 353 352 351 350 349 350 350 348 346 342 341 342 346 349 349 348 347 349 353 358 359 358 358 357 357 356 353 351 350 350 348 345 348 356 3 9 20 27 26 26 29 32 36 42 48 54 60 65 69 64 51 41 45 52 58 60 58
353 353 352 351 350 349 347 347 347 349 351 352 352 352 350 348 347 347 347 347 345 341 339 338 340 342 343 342 340 340 342 346 350 352 353 353 354 354 352 350 351 354 355 354 357 2 5 10 19 26 29 32 34 35 37 41 47 53 59 65 68 66 53 40 38 42 47 51 52
350 350 349 349 349 348 347 347 347 348 350 351 351 351 349 346 345 345 345 345 344 341 338 336 337 339 340 340 338 337 337 339 342 346 348 349 350 352 352 351 353 359 4 8 11 11 11 14 20 23 27 34 38 37 35 37 42 48 55 60 64 64 57 43 33 30 33 37 42